This is the latest recevied weather packets stored in our database for station/object N7CW. If no packets are shown the sender has not sent any weather packets the latest 10 day(s).
| Time | Temp. | Humidity | Pressure | Rain* | Wind** | Luminosity | Snow |
|---|---|---|---|---|---|---|---|
| 1777823337 | 20° C | 38% | 1017.7 hPa | 0 mm | - | 470 W/m² | - |
| 1777823035 | 20° C | 39% | 1017.9 hPa | 0 mm | - | 460 W/m² | - |
| 1777822733 | 19.44° C | 39% | 1018 hPa | 0 mm | - | 439 W/m² | - |
| 1777822431 | 18.89° C | 39% | 1017.9 hPa | 0 mm | - | 426 W/m² | - |
| 1777822128 | 18.89° C | 39% | 1017.9 hPa | 0 mm | - | 413 W/m² | - |
| 1777821826 | 18.89° C | 38% | 1018.2 hPa | 0 mm | - | 394 W/m² | - |
| 1777821523 | 19.44° C | 39% | 1018.1 hPa | 0 mm | - | 375 W/m² | - |
| 1777821221 | 18.89° C | 39% | 1018.1 hPa | 0 mm | - | 354 W/m² | - |
| 1777820917 | 18.89° C | 39% | 1018 hPa | 0 mm | - | 362 W/m² | - |
| 1777820613 | 18.33° C | 40% | 1018 hPa | 0 mm | - | 328 W/m² | - |
| 1777820310 | 17.78° C | 41% | 1017.8 hPa | 0 mm | - | 248 W/m² | - |
| 1777820009 | 17.78° C | 41% | 1017.7 hPa | 0 mm | - | 224 W/m² | - |
| 1777819705 | 17.78° C | 39% | 1017.9 hPa | 0 mm | - | 270 W/m² | - |
| 1777819404 | 17.22° C | 40% | 1017.7 hPa | 0 mm | - | 217 W/m² | - |
| 1777819100 | 16.67° C | 41% | 1018.1 hPa | 0 mm | - | 226 W/m² | - |
| 1777818797 | 15.56° C | 41% | 1017.8 hPa | 0 mm | - | 198 W/m² | - |
| 1777818493 | 14.44° C | 42% | 1017.9 hPa | 0 mm | - | 186 W/m² | - |
| 1777818190 | 14.44° C | 41% | 1018 hPa | 0 mm | - | 158 W/m² | - |
| 1777817886 | 15° C | 42% | 1017.9 hPa | 0 mm | - | 142 W/m² | - |
| 1777817584 | 13.89° C | 42% | 1018 hPa | 0 mm | - | 121 W/m² | - |
| 1777817281 | 13.33° C | 42% | 1017.9 hPa | 0 mm | - | 87 W/m² | - |
| 1777816978 | 12.78° C | 41% | 1017.9 hPa | 0 mm | - | 75 W/m² | - |
| 1777816674 | 12.78° C | 41% | 1018 hPa | 0 mm | - | 79 W/m² | - |
| 1777816371 | 12.22° C | 41% | 1018.1 hPa | 0 mm | - | 75 W/m² | - |
| 1777816069 | 11.67° C | 41% | 1017.8 hPa | 0 mm | - | 72 W/m² | - |
* Rain latest hour (hover to see other rain measurements)
** Current wind speed in m/s (hover to see current wind gust speed)